Temp
5 4 4 5 5 5 5 5 5 6 6 6 6 6 7 8 8 8 8 9 9 10 10 10 11 12 13 14 15 15 16 17 20 20 19 20 20 20 19 18 18 17 18 17 15
4 4 4 5 5 5 5 5 5 6 6 6 6 6 7 8 7 7 7 8 8 9 10 11 11 12 13 14 14 15 15 20 17 18 18 20 19 18 19 17 16 15 14 15 14
5 4 5 5 5 5 5 5 5 5 6 6 6 7 7 7 7 7 7 8 9 10 10 11 12 13 14 15 15 16 16 18 16 17 20 20 19 19 19 17 17 15 14 13 13
4 5 5 5 5 4 4 4 4 5 5 5 6 7 7 7 7 6 7 8 8 10 9 11 13 13 14 13 15 15 15 16 15 17 20 19 18 19 19 17 18 16 14 14 14
5 5 5 4 4 4 3 4 4 5 5 5 6 6 6 6 6 6 7 8 8 9 9 11 13 13 14 15 15 16 14 14 14 16 16 17 16 18 15 16 17 15 14 14 14
5 5 5 4 4 5 4 4 4 5 5 5 6 6 6 7 5 7 7 8 9 9 9 11 13 14 16 16 15 15 14 14 14 14 15 16 15 16 15 15 15 15 14 14 14
5 5 5 4 4 5 4 5 5 4 5 6 6 6 6 5 5 6 8 8 8 9 10 11 14 14 16 14 15 13 12 13 14 14 14 15 14 14 15 14 14 14 14 14 13
5 5 5 4 5 4 5 5 4 4 5 5 5 5 4 4 4 5 6 7 8 9 10 12 13 15 15 14 14 14 14 12 13 14 12 14 16 15 14 14 14 14 14 13 13
5 5 5 5 5 4 5 5 5 5 4 5 5 6 4 4 4 4 6 9 8 10 11 12 13 14 13 12 11 13 10 13 12 14 14 14 15 14 14 14 15 14 14 13 12
5 6 5 6 6 5 5 6 5 6 5 4 5 5 4 4 4 4 5 7 8 9 11 12 13 11 12 12 9 11 12 14 12 12 13 13 15 14 14 14 15 15 15 14 13
5 5 6 7 6 6 6 5 6 4 2 3 4 4 4 4 4 4 5 5 7 8 10 12 11 10 13 14 16 14 15 13 12 13 14 14 15 15 15 14 15 16 16 15 14
5 6 6 7 6 6 6 5 4 3 2 3 4 4 4 4 5 6 6 6 6 9 12 11 10 13 15 15 15 15 14 12 12 13 13 14 14 14 16 14 15 15 16 17 16
6 6 6 6 6 7 6 5 4 3 3 2 3 3 4 4 5 5 7 9 10 10 12 10 11 12 14 14 15 16 14 12 10 13 14 14 13 14 16 18 17 16 16 17 17
7 6 6 6 6 6 6 5 5 5 4 3 3 4 4 5 5 6 7 8 11 12 11 10 11 13 14 12 13 12 14 14 13 11 9 14 10 17 16 15 17 17 16 16 16
7 6 6 6 6 5 6 6 6 5 6 3 4 4 5 6 7 8 9 10 12 11 10 9 11 12 11 11 13 12 14 14 14 14 13 15 9 15 15 15 14 15 15 15 14
7 6 6 5 5 5 6 6 6 6 6 5 5 6 8 8 8 8 10 11 12 10 10 9 10 10 11 12 12 12 13 14 14 12 8 13 12 13 14 15 14 15 15 14 13
8 7 6 6 5 5 6 5 6 6 4 5 6 8 10 10 11 11 11 11 10 7 7 10 10 10 11 11 12 12 12 7 8 6 8 12 11 12 14 14 13 13 13 12 11
8 8 7 6 6 7 6 7 6 6 6 7 8 10 9 11 11 12 12 11 11 11 7 6 7 10 11 11 12 12 11 8 9 8 8 11 9 13 12 13 13 13 12 12 11
8 9 8 7 7 7 7 6 6 7 9 9 9 10 10 11 10 11 12 11 10 11 9 7 6 10 10 11 11 11 9 11 11 13 8 9 13 13 13 13 13 13 12 12 12
9 7 8 9 8 8 8 7 8 9 10 10 10 10 10 11 11 12 12 11 10 11 11 11 7 11 10 11 11 10 11 9 7 9 12 11 15 9 11 12 12 12 12 12 12
8 9 10 10 10 9 7 8 9 9 9 10 11 11 11 11 12 12 11 10 12 11 11 12 10 9 10 10 11 10 10 11 11 9 9 12 11 14 11 12 11 12 13 13 12
9 10 10 10 10 11 8 10 10 10 9 10 10 11 11 11 11 12 11 10 10 11 12 11 10 7 10 10 10 10 12 13 10 11 11 10 10 13 11 12 13 13 13 13 13
10 11 11 11 9 9 10 10 10 10 11 11 11 11 11 11 10 11 9 10 10 9 9 10 10 6 9 9 10 10 11 12 11 10 10 9 10 11 12 12 14 13 13 13 13
9 9 11 11 11 12 11 11 10 9 10 11 11 12 11 11 11 10 9 9 9 9 9 9 11 9 8 10 10 10 11 10 10 6 11 11 11 11 11 11 12 13 13 13 12
9 9 10 10 11 11 11 12 11 10 10 11 11 11 12 11 11 10 9 9 9 9 10 9 9 7 10 11 10 11 10 10 9 9 10 12 13 12 12 11 12 13 12 12 11
8 10 10 10 10 11 9 11 11 10 10 11 11 11 11 10 10 10 11 11 11 9 10 9 8 8 5 9 9 8 9 10 9 10 10 10 10 11 13 13 12 11 11 11 11
9 9 9 9 11 11 10 10 11 11 9 10 11 11 9 8 9 9 10 10 9 10 9 10 7 6 9 9 9 7 8 9 9 10 10 9 11 12 10 10 11 10 10 10 9
Height
1480 1477 1474 1471 1468 1465 1462 1460 1457 1456 1457 1459 1462 1465 1468 1471 1474 1478 1480 1482 1484 1486 1488 1490 1493 1496 1500 1501 1502 1502 1505 1503 1494 1495 1501 1505 1509 1510 1516 1518 1522 1525 1522 1525 1532
1480 1477 1474 1470 1467 1463 1460 1458 1455 1454 1454 1457 1460 1463 1466 1469 1473 1476 1479 1480 1480 1484 1487 1490 1492 1495 1499 1500 1503 1502 1502 1492 1495 1490 1497 1504 1511 1513 1517 1521 1526 1528 1528 1530 1533
1479 1475 1472 1469 1466 1462 1458 1455 1452 1451 1452 1454 1458 1462 1465 1468 1474 1475 1476 1478 1480 1482 1486 1491 1493 1496 1498 1500 1501 1500 1500 1494 1498 1495 1499 1505 1510 1514 1517 1522 1523 1526 1529 1531 1534
1478 1475 1472 1468 1464 1460 1455 1450 1450 1450 1451 1453 1457 1461 1464 1468 1473 1471 1475 1477 1479 1482 1485 1488 1492 1495 1496 1500 1500 1501 1501 1500 1501 1499 1502 1507 1510 1515 1517 1521 1521 1524 1529 1532 1535
1478 1475 1471 1468 1465 1461 1456 1451 1449 1450 1453 1455 1458 1461 1464 1468 1470 1471 1473 1477 1480 1481 1485 1487 1490 1493 1494 1498 1501 1501 1505 1506 1504 1503 1505 1508 1513 1515 1519 1521 1523 1526 1530 1534 1536
1477 1475 1472 1470 1466 1462 1457 1453 1451 1451 1453 1456 1458 1461 1465 1468 1470 1471 1474 1477 1478 1482 1485 1487 1490 1490 1493 1496 1500 1500 1506 1509 1508 1509 1511 1513 1516 1515 1521 1522 1524 1527 1531 1534 1536
1478 1475 1473 1471 1468 1464 1459 1454 1448 1449 1453 1456 1459 1462 1466 1470 1470 1471 1474 1476 1478 1481 1486 1487 1490 1493 1491 1495 1499 1503 1509 1511 1512 1513 1515 1515 1520 1518 1518 1522 1525 1528 1531 1533 1536
1479 1477 1474 1472 1469 1467 1464 1459 1456 1453 1453 1457 1461 1463 1465 1467 1470 1471 1472 1476 1478 1480 1484 1486 1490 1492 1492 1497 1501 1502 1506 1517 1514 1514 1516 1517 1516 1516 1519 1522 1524 1527 1530 1532 1535
1479 1477 1475 1473 1471 1469 1466 1464 1462 1460 1458 1460 1462 1463 1469 1470 1472 1472 1473 1475 1481 1482 1484 1488 1490 1492 1496 1499 1507 1502 1516 1509 1517 1515 1515 1518 1517 1518 1519 1522 1524 1526 1528 1530 1533
1480 1477 1476 1474 1472 1471 1469 1466 1464 1463 1463 1465 1463 1468 1471 1472 1473 1474 1475 1474 1482 1485 1488 1489 1490 1495 1496 1498 1514 1506 1506 1505 1514 1517 1517 1517 1517 1517 1519 1521 1522 1523 1525 1527 1529
1481 1480 1478 1475 1472 1471 1469 1468 1470 1469 1468 1472 1471 1470 1471 1473 1474 1476 1479 1479 1485 1487 1485 1487 1492 1498 1491 1491 1487 1493 1496 1506 1513 1514 1514 1515 1516 1515 1515 1519 1520 1520 1522 1523 1524
1483 1481 1478 1477 1476 1473 1471 1470 1473 1476 1476 1472 1472 1473 1474 1474 1476 1479 1482 1487 1487 1484 1483 1490 1495 1490 1487 1489 1491 1491 1498 1512 1514 1513 1515 1513 1516 1512 1512 1513 1514 1517 1518 1520 1521
1483 1482 1480 1478 1477 1475 1473 1474 1474 1474 1477 1478 1478 1477 1476 1477 1479 1482 1483 1484 1485 1484 1483 1490 1493 1492 1489 1490 1490 1492 1499 1510 1518 1515 1514 1514 1516 1508 1504 1506 1509 1512 1515 1518 1519
1484 1481 1480 1478 1477 1475 1474 1473 1473 1474 1478 1487 1483 1482 1479 1479 1484 1483 1483 1485 1482 1481 1486 1492 1493 1491 1490 1496 1495 1505 1495 1502 1510 1517 1534 1514 1542 1500 1501 1503 1505 1509 1512 1514 1517
1483 1482 1479 1477 1477 1476 1477 1473 1472 1474 1472 1490 1486 1485 1481 1481 1484 1485 1484 1482 1477 1482 1485 1499 1493 1493 1501 1503 1495 1506 1501 1503 1507 1510 1516 1516 1540 1508 1501 1507 1507 1508 1510 1512 1515
1482 1481 1479 1475 1475 1475 1474 1472 1473 1475 1483 1490 1489 1486 1483 1484 1488 1485 1484 1482 1481 1485 1492 1499 1498 1499 1503 1501 1499 1502 1505 1505 1507 1517 1542 1520 1529 1520 1511 1506 1508 1508 1509 1511 1514
1481 1480 1477 1474 1475 1473 1472 1473 1474 1481 1496 1494 1490 1487 1480 1482 1482 1484 1485 1484 1488 1500 1503 1500 1504 1504 1504 1506 1506 1505 1508 1539 1544 1553 1546 1525 1530 1519 1507 1506 1508 1510 1511 1513 1515
1481 1479 1477 1475 1473 1472 1472 1473 1482 1492 1492 1492 1490 1485 1485 1482 1483 1481 1482 1486 1483 1488 1503 1513 1522 1508 1507 1507 1507 1507 1510 1529 1540 1546 1544 1528 1537 1514 1507 1508 1510 1511 1513 1514 1515
1480 1480 1477 1476 1474 1472 1474 1481 1493 1491 1490 1488 1490 1487 1485 1484 1486 1488 1486 1489 1492 1491 1498 1510 1520 1512 1510 1508 1510 1511 1519 1512 1517 1515 1538 1530 1512 1507 1507 1509 1511 1512 1513 1514 1514
1480 1480 1480 1478 1475 1474 1475 1484 1492 1490 1490 1487 1484 1486 1487 1486 1486 1484 1487 1494 1492 1494 1491 1497 1517 1509 1512 1510 1510 1510 1511 1523 1528 1539 1526 1525 1508 1524 1514 1513 1512 1512 1513 1513 1513
1480 1481 1480 1478 1477 1476 1484 1488 1490 1490 1489 1487 1483 1483 1485 1486 1482 1484 1491 1497 1495 1496 1493 1491 1501 1515 1511 1510 1509 1513 1513 1512 1516 1524 1533 1525 1527 1508 1513 1512 1513 1513 1513 1512 1512
1481 1482 1481 1479 1480 1481 1486 1486 1488 1490 1490 1489 1488 1486 1486 1486 1486 1486 1491 1496 1497 1496 1492 1493 1499 1519 1508 1509 1509 1509 1507 1506 1522 1521 1521 1525 1528 1509 1512 1512 1512 1512 1512 1512 1511
1483 1482 1482 1481 1484 1486 1489 1491 1491 1490 1490 1489 1488 1488 1488 1489 1492 1490 1495 1498 1497 1497 1499 1496 1498 1523 1516 1514 1511 1513 1509 1509 1512 1518 1522 1533 1525 1510 1512 1511 1510 1511 1511 1511 1510
1485 1486 1483 1483 1482 1483 1486 1488 1491 1493 1492 1491 1489 1489 1489 1490 1489 1493 1497 1500 1499 1499 1499 1498 1496 1502 1512 1506 1504 1511 1507 1510 1514 1535 1518 1517 1516 1514 1512 1510 1510 1510 1510 1510 1509
1487 1487 1486 1486 1486 1485 1487 1487 1489 1491 1492 1492 1491 1489 1488 1492 1491 1493 1496 1499 1500 1500 1499 1499 1503 1509 1502 1503 1505 1504 1506 1510 1516 1513 1515 1509 1508 1510 1508 1508 1508 1510 1509 1508 1507
1489 1488 1487 1487 1487 1486 1488 1488 1488 1492 1492 1491 1491 1492 1490 1493 1496 1493 1493 1494 1494 1500 1499 1500 1507 1507 1517 1508 1510 1511 1508 1506 1510 1510 1511 1510 1512 1504 1505 1507 1508 1508 1508 1507 1505
1490 1490 1490 1487 1486 1485 1487 1488 1488 1490 1494 1493 1492 1491 1494 1498 1497 1496 1496 1496 1497 1499 1500 1501 1509 1514 1509 1508 1509 1515 1503 1502 1501 1501 1505 1513 1506 1503 1505 1506 1507 1506 1505 1504 1503
Wind_Speed
16 17 18 18 18 17 14 12 9 10 14 16 15 16 16 14 15 18 12 11 9 8 13 8 10 11 10 13 5 2 1 4 6 11 8 17 3 8 9 15 9 9 11 18 19
17 16 17 16 19 17 17 15 13 13 14 19 14 17 17 14 13 12 13 12 11 13 15 13 14 14 9 11 6 3 2 2 9 7 11 17 12 7 8 14 10 15 16 18 16
15 15 17 17 18 18 18 18 17 10 11 15 14 15 15 14 13 12 12 10 17 16 14 11 14 16 10 10 7 5 2 3 10 8 16 16 17 10 14 5 14 16 17 15 15
14 15 17 17 14 21 22 16 9 6 6 12 14 15 13 17 7 14 21 10 14 18 11 14 17 18 10 6 9 1 6 10 4 8 16 8 13 5 7 5 11 15 15 16 15
14 15 14 13 16 19 17 11 5 8 9 12 14 14 16 13 4 3 14 12 16 17 11 15 18 18 9 10 7 1 4 6 5 11 12 13 7 3 9 11 14 16 16 14 12
14 15 14 13 15 17 17 16 8 5 11 12 14 13 16 11 2 5 10 7 15 14 10 16 16 22 15 15 10 10 10 9 7 7 4 6 3 3 7 13 16 16 14 13 12
13 14 13 12 13 16 18 20 7 8 9 15 13 16 11 7 6 6 9 9 19 15 9 16 15 16 8 8 13 21 8 6 5 5 2 4 2 4 18 14 13 13 13 13 11
13 14 11 9 10 15 18 16 24 13 13 13 14 7 5 5 7 3 10 11 15 19 13 17 13 9 7 12 8 6 6 5 4 3 1 1 3 8 15 16 14 14 13 13 12
13 14 11 8 6 11 13 16 17 17 13 14 10 7 4 8 5 4 9 13 14 14 9 8 11 8 6 7 3 7 4 6 4 1 3 4 4 9 12 13 13 15 14 14 12
14 13 13 10 5 5 3 9 13 2 5 12 5 4 4 4 7 6 10 18 19 6 10 9 5 4 5 6 6 5 6 6 6 6 1 4 2 7 11 12 13 16 16 16 15
12 14 18 18 8 2 5 8 4 9 25 11 7 15 11 10 9 8 14 23 12 7 6 14 4 7 11 9 6 9 8 9 6 2 3 4 5 7 14 14 13 14 18 20 19
8 10 13 15 16 13 10 10 12 5 5 24 20 18 9 3 9 14 16 11 9 8 11 6 5 2 6 4 4 9 8 6 6 4 2 6 7 8 10 15 20 19 19 19 18
4 2 3 12 8 11 10 8 6 4 4 10 14 7 6 10 8 9 7 9 8 13 11 4 4 2 3 5 4 5 9 6 6 5 1 1 6 7 9 20 24 23 18 14 14
6 4 7 8 5 8 7 8 2 5 2 9 7 6 7 7 6 2 3 3 5 17 10 6 3 6 5 5 3 4 3 9 10 4 3 3 3 2 6 7 5 13 13 11 11
10 10 11 8 8 4 6 7 1 3 3 7 5 5 6 4 7 2 2 2 4 8 6 2 4 7 8 4 4 4 1 6 6 3 3 3 4 5 6 6 6 11 11 11 10
11 12 12 9 7 5 5 3 2 1 6 4 5 2 5 6 9 5 1 11 14 15 13 5 8 7 3 5 3 8 6 5 5 2 3 2 3 4 3 4 5 5 6 8 7
11 12 10 7 2 5 4 3 1 5 2 6 6 4 11 11 9 7 5 2 4 6 3 6 6 3 3 6 2 3 2 3 4 3 3 3 1 6 6 6 8 8 8 4 5
8 11 11 9 5 3 5 2 8 5 6 2 3 6 11 7 5 6 4 5 8 11 3 4 1 6 4 3 3 3 2 4 5 4 3 4 4 3 6 7 4 7 4 3 3
6 9 16 13 4 5 2 7 3 1 1 3 6 6 6 5 5 4 7 4 6 6 3 5 3 2 4 4 4 3 1 0 3 1 4 4 5 5 6 4 6 6 3 1 2
6 2 6 10 6 7 2 7 3 5 4 3 2 5 8 4 3 4 3 3 4 4 9 4 5 2 2 2 5 4 2 4 3 3 2 2 2 3 3 4 5 5 7 5 3
4 2 10 7 7 5 3 4 3 1 2 5 6 5 6 2 3 4 5 2 3 1 11 6 5 2 3 4 4 2 2 1 1 3 2 1 3 3 5 5 7 7 3 4 7
4 1 9 5 3 4 2 4 2 3 0 1 3 5 5 4 5 2 4 5 4 4 2 2 5 4 3 3 5 3 3 3 3 2 1 2 4 5 7 7 6 4 6 7 7
5 3 7 5 3 3 1 3 4 1 1 2 2 4 2 2 1 4 5 2 5 5 4 5 3 4 2 1 2 2 4 3 4 3 3 2 3 5 8 7 6 4 7 8 9
2 2 3 6 5 4 3 3 3 2 2 3 3 1 3 2 3 4 5 1 3 3 3 5 4 3 3 3 3 4 5 7 5 3 3 5 5 7 7 6 8 8 6 9 13
3 1 1 0 3 4 1 1 4 3 2 2 3 4 4 3 4 3 4 4 2 1 1 3 3 3 3 3 3 2 5 8 9 7 3 1 3 2 3 5 5 5 10 16 14
3 3 2 3 2 4 3 2 2 3 3 3 1 2 5 4 5 5 5 4 2 2 0 2 1 2 2 4 2 4 7 7 9 9 9 8 7 5 8 5 6 10 13 16 11
4 4 4 1 2 3 2 3 4 3 2 4 4 1 7 4 7 9 9 9 7 2 3 1 3 1 1 1 4 6 11 13 7 6 8 7 6 3 5 8 11 15 16 9 10
Wind_Direction
347 346 347 346 336 328 323 325 310 275 239 225 223 218 214 212 208 203 204 208 223 235 184 164 176 168 179 193 206 272 279 232 246 150 118 147 132 75 80 117 84 62 111 159 176
343 349 349 346 340 328 321 311 304 285 243 230 217 203 209 203 195 198 212 219 180 203 182 180 175 167 175 198 203 224 247 263 3 21 135 153 155 118 131 119 109 102 118 147 158
345 348 350 347 346 343 331 316 313 273 245 226 216 197 205 187 181 202 205 226 195 175 171 192 175 170 172 176 203 206 310 65 27 47 136 161 144 162 133 183 165 159 149 153 147
352 351 352 350 344 345 342 322 303 214 192 189 188 196 197 175 169 204 206 184 201 179 180 193 193 189 182 169 189 224 23 26 12 25 139 149 109 169 125 66 146 162 155 151 158
357 354 353 354 357 5 8 18 21 195 177 177 174 188 175 188 164 176 194 214 193 176 185 191 195 193 196 186 151 162 76 45 63 55 76 109 78 141 94 105 130 141 153 159 163
3 354 354 359 357 356 353 355 343 206 184 170 176 180 179 177 232 196 177 172 202 179 193 194 197 195 206 162 187 120 115 107 94 67 87 105 73 79 136 136 135 151 158 170 176
11 4 1 6 6 9 3 12 4 193 195 185 179 178 188 174 167 188 182 188 186 169 203 199 193 215 240 129 113 133 108 112 98 151 83 111 126 254 161 160 159 167 172 185 189
16 3 5 5 19 21 27 46 28 89 130 145 150 149 72 119 139 162 167 172 189 167 180 206 233 209 157 125 127 167 148 138 128 203 211 49 193 142 162 167 174 181 184 189 196
15 6 357 356 15 25 43 41 45 56 65 99 123 107 81 101 122 144 148 190 179 157 175 186 152 122 132 164 135 196 167 125 129 46 121 215 85 132 164 186 193 193 196 205 211
15 25 13 357 13 35 56 357 355 38 82 92 64 73 50 91 114 138 136 151 154 160 157 159 160 150 186 184 188 172 144 121 133 176 231 176 268 150 185 204 217 210 208 212 218
30 55 53 47 22 312 321 341 13 19 54 11 55 91 99 91 111 120 127 142 163 234 167 190 156 188 187 191 220 154 143 125 79 99 199 207 245 196 186 210 226 234 212 217 217
40 90 69 48 37 50 76 82 76 93 48 38 68 91 63 48 112 126 140 136 204 201 158 157 180 77 203 123 247 175 139 100 73 131 189 191 248 246 210 205 214 223 229 223 214
44 139 6 358 359 16 26 61 102 117 81 22 19 39 9 57 95 104 125 153 184 184 154 126 82 299 187 142 210 158 142 149 152 157 233 349 281 216 224 221 213 217 223 229 221
345 285 297 322 329 357 342 8 35 134 84 7 1 23 13 100 71 93 321 159 239 162 126 77 222 193 117 79 1 83 32 124 136 138 153 161 267 224 183 192 201 201 205 224 230
339 327 323 317 305 330 332 334 21 147 65 344 357 9 13 82 133 29 359 258 112 86 86 169 114 96 57 340 334 150 176 135 169 106 96 183 69 261 87 177 186 207 216 219 231
337 335 337 335 353 318 326 341 131 253 43 23 320 356 134 158 127 219 332 108 95 87 76 77 50 58 59 68 86 146 125 86 62 68 54 39 114 289 134 105 89 61 133 148 204
346 344 340 340 257 308 5 51 5 45 165 356 37 128 103 104 136 149 153 116 145 96 63 79 56 80 88 71 349 271 164 49 28 25 202 312 43 255 123 72 98 90 102 160 216
355 354 356 9 6 60 59 239 51 31 55 171 128 95 86 87 102 142 124 70 26 99 133 107 348 351 330 8 169 52 78 142 159 168 197 47 225 244 101 73 95 124 131 160 210
352 16 17 4 41 98 33 51 51 84 47 94 135 89 100 119 132 81 77 47 28 4 113 123 46 110 19 44 354 185 132 351 95 54 75 193 242 59 66 127 130 128 96 96 304
354 15 334 13 57 56 49 101 83 47 349 276 53 192 131 124 166 128 116 344 20 349 319 134 106 92 145 270 44 39 154 67 1 103 212 260 202 212 44 80 120 108 64 50 346
42 317 358 14 16 54 78 88 122 192 322 0 2 49 68 44 314 76 55 83 49 275 280 192 124 156 188 216 147 124 135 41 73 111 155 155 259 52 135 124 108 90 66 351 328
31 280 360 26 44 64 44 116 134 121 189 330 309 52 43 318 35 64 104 49 358 314 7 49 117 139 80 54 36 358 327 193 112 198 287 161 260 89 110 117 112 12 18 357 347
347 350 13 20 74 71 94 74 341 195 145 231 98 8 346 39 71 55 83 45 11 39 30 352 99 97 48 64 79 245 195 282 77 46 221 126 240 132 162 164 59 47 10 2 354
353 2 10 34 28 104 161 105 116 55 17 346 67 230 204 109 341 140 126 94 40 74 12 316 16 68 138 127 106 183 199 184 165 139 226 214 144 182 195 50 42 17 345 1 352
12 30 277 182 57 83 270 171 152 149 253 261 182 338 334 135 154 104 101 147 142 125 328 12 80 65 17 93 9 316 177 183 205 225 182 62 53 149 88 67 16 348 0 353 345
24 337 325 114 152 248 151 74 126 140 330 134 102 56 11 63 16 160 150 194 116 192 212 6 108 79 295 92 270 260 259 233 215 241 261 284 297 109 51 26 23 342 340 339 351
13 12 331 160 180 275 52 76 99 141 78 35 14 236 93 62 63 50 53 49 53 123 156 152 120 90 110 170 288 289 220 207 193 182 199 227 226 82 37 24 340 318 318 328 342